Location: Poughquag
(41.6090°N, 73.6820°W)
Time: 03:55:16
(UTC-04:00)

Tiangong 2 - Visible Passes

Search period start: 19 March 2019 00:00
Search period end: 29 March 2019 00:00
Orbit: 379 x 390 km, 42.8° (Epoch: 18 March)

Date Brightness Start Highest point End Pass type
(mag) Time Alt. Az. Time Alt. Az. Time Alt. Az.
19 Mar 1.9 05:04:58 50° ENE 05:04:58 50° ENE 05:07:28 10° E visible
20 Mar 1.0 05:40:31 37° W 05:41:35 73° SSW 05:44:46 10° ESE visible
21 Mar 3.4 04:43:55 23° E 04:43:55 23° E 04:45:18 10° E visible
21 Mar 2.1 06:16:09 12° W 06:18:42 30° SSW 06:21:32 10° SE visible
22 Mar 1.6 05:19:39 46° S 05:19:39 46° S 05:22:23 10° SE visible
23 Mar 2.8 05:55:31 17° SW 05:56:18 18° SSW 05:58:34 10° SSE visible
24 Mar 3.7 04:59:18 13° SSE 04:59:18 13° SSE 04:59:46 10° SE visible
